This is the latest recevied weather packets stored in our database for station/object KK6LZB. If no packets are shown the sender has not sent any weather packets the latest 10 day(s).
| Time | Temp. | Humidity | Pressure | Rain* | Wind** | Luminosity | Snow |
|---|---|---|---|---|---|---|---|
| 1778080340 | 13.89° C | 87% | 1020.5 hPa | 0 mm | - | 39 W/m² | - |
| 1778080036 | 13.89° C | 87% | 1020.5 hPa | 0 mm | - | 37 W/m² | - |
| 1778079733 | 13.33° C | 88% | 1020.7 hPa | 0 mm | - | 37 W/m² | - |
| 1778079430 | 13.33° C | 88% | 1020.5 hPa | 0 mm | - | 39 W/m² | - |
| 1778079127 | 12.78° C | 89% | 1020.4 hPa | 0 mm | - | 33 W/m² | - |
| 1778078824 | 12.78° C | 90% | 1020.4 hPa | 0 mm | - | 32 W/m² | - |
| 1778078521 | 12.22° C | 90% | 1020.5 hPa | 0 mm | - | 30 W/m² | - |
| 1778078219 | 12.22° C | 91% | 1020.4 hPa | 0 mm | - | 29 W/m² | - |
| 1778077917 | 12.22° C | 92% | 1020.4 hPa | 0 mm | - | 29 W/m² | - |
| 1778077615 | 11.67° C | 92% | 1020.4 hPa | 0 mm | - | 28 W/m² | - |
| 1778077312 | 11.67° C | 93% | 1020.3 hPa | 0 mm | - | 27 W/m² | - |
| 1778077010 | 11.67° C | 93% | 1020.3 hPa | 0 mm | - | 26 W/m² | - |
| 1778076708 | 11.11° C | 93% | 1020.4 hPa | 0 mm | - | 24 W/m² | - |
| 1778076405 | 11.11° C | 93% | 1020.4 hPa | 0 mm | - | 23 W/m² | - |
| 1778076102 | 11.11° C | 94% | 1020.4 hPa | 0 mm | - | 22 W/m² | - |
| 1778075799 | 11.11° C | 95% | 1020.3 hPa | 0 mm | - | 25 W/m² | - |
| 1778075495 | 10.56° C | 95% | 1020.1 hPa | 0 mm | - | 27 W/m² | - |
| 1778075192 | 10.56° C | 95% | 1020.2 hPa | 0 mm | - | 19 W/m² | - |
| 1778074888 | 10° C | 95% | 1020 hPa | 0 mm | - | 17 W/m² | - |
| 1778074585 | 10° C | 96% | 1020.2 hPa | 0 mm | - | 15 W/m² | - |
| 1778074282 | 9.44° C | 96% | 1020 hPa | 0 mm | - | 13 W/m² | - |
| 1778073980 | 9.44° C | 97% | 1020.1 hPa | 0 mm | - | 11 W/m² | - |
| 1778073676 | 9.44° C | 97% | 1019.9 hPa | 0 mm | - | 10 W/m² | - |
| 1778073374 | 9.44° C | 97% | 1019.9 hPa | 0 mm | - | 8 W/m² | - |
| 1778073070 | 8.89° C | 97% | 1019.8 hPa | 0 mm | - | 6 W/m² | - |
* Rain latest hour (hover to see other rain measurements)
** Current wind speed in m/s (hover to see current wind gust speed)